Shelton, WA
on Thursday, January 3, 2013

Thursday
Previous Day Next Day
Daily Summary
 ActualAverage (KOLM)Record (KOLM)
Temperature
Mean Temperature °F / °C 39°F / 4°C  
Max Temperature 39°F / 4°C 44°F / 7°C 59°F / 15°C (1984)
Min Temperature 19°F / -7°C 33°F / 1°C 5°F / -15°C (1950)
Degree Days
Heating Degree Days 36 26  
Month to date heating degree days 78  
Since 1 July heating degree days 2348  
Cooling Degree Days 0 0  
Month to date cooling degree days 0  
Year to date cooling degree days 0  
Moisture
Dew Point 29°F / -2°C   
Average Humidity 92    
Maximum Humidity 100    
Minimum Humidity 65    
Precipitation
Precipitation 0.31 in / 7.87 cm 0.25 in / 6.35 cm 1.60 in / 4.06 cm (1984)
Month to date precipitation 0.75  
Year to date precipitation 0.75  
Wind
Wind Speed 1 mph / 2 km/h   
Max Wind Speed 7 mph / 11 km/h   
Max Gust Speed mph / km/h   
Visibility 9 miles / 14 kilometers   
Events Rain   

Key: T is trace of precipitation, MM is missing value
Source: NWS Daily Summary
Time(PST)TemperatureDew PointHumidity Pressure Visibility Wind DirectionWind SpeedGust SpeedPrecipitationEvents Conditions
12:24 AM 24.8°F / -4.0°C 24.8°F / -4.0°C 100% 30.17 in / 1021.6 hPa 4.0 miles / 6.4 kilometers Calm Calm - N/A   Partly Cloudy
12:53 AM 24.1°F / -4.4°C 23.0°F / -5.0°C 96% 30.19 in / 1022.2 hPa 1.5 miles / 2.4 kilometers Calm Calm - N/A   Mostly Cloudy
1:11 AM 24.8°F / -4.0°C 21.2°F / -6.0°C 86% 30.17 in / 1021.6 hPa 3.0 miles / 4.8 kilometers Calm Calm - N/A   Mostly Cloudy
1:29 AM 24.8°F / -4.0°C 23.0°F / -5.0°C 93% 30.16 in / 1021.2 hPa 2.5 miles / 4.0 kilometers Calm Calm - N/A   Mostly Cloudy
1:33 AM 24.8°F / -4.0°C 23.0°F / -5.0°C 93% 30.16 in / 1021.2 hPa 5.0 miles / 8.0 kilometers Calm Calm - N/A   Scattered Clouds
1:53 AM 24.1°F / -4.4°C 23.0°F / -5.0°C 96% 30.18 in / 1022.0 hPa 10.0 miles / 16.1 kilometers Calm Calm - N/A   Clear
2:53 AM 24.1°F / -4.4°C 23.0°F / -5.0°C 96% 30.18 in / 1022.0 hPa 10.0 miles / 16.1 kilometers Calm Calm - N/A   Clear
3:53 AM 24.1°F / -4.4°C 21.9°F / -5.6°C 91% 30.18 in / 1021.9 hPa 10.0 miles / 16.1 kilometers Calm Calm - N/A   Clear
4:53 AM 24.1°F / -4.4°C 23.0°F / -5.0°C 96% 30.16 in / 1021.1 hPa 10.0 miles / 16.1 kilometers NNE 3.5 mph / 5.6 km/h - N/A   Clear
5:53 AM 21.9°F / -5.6°C 19.9°F / -6.7°C 92% 30.14 in / 1020.7 hPa 10.0 miles / 16.1 kilometers Calm Calm - N/A   Clear
6:53 AM 23.0°F / -5.0°C 21.0°F / -6.1°C 92% 30.13 in / 1020.2 hPa 10.0 miles / 16.1 kilometers Calm Calm - N/A   Clear
7:53 AM 19.9°F / -6.7°C 18.0°F / -7.8°C 92% 30.12 in / 1019.9 hPa 10.0 miles / 16.1 kilometers Calm Calm - N/A   Clear
8:53 AM 21.9°F / -5.6°C 21.0°F / -6.1°C 96% 30.14 in / 1020.4 hPa 10.0 miles / 16.1 kilometers Calm Calm - N/A   Clear
9:53 AM 28.9°F / -1.7°C 28.0°F / -2.2°C 96% 30.15 in / 1020.8 hPa 10.0 miles / 16.1 kilometers NNE 3.5 mph / 5.6 km/h - N/A   Clear
10:53 AM 32.0°F / 0.0°C 30.9°F / -0.6°C 96% 30.15 in / 1020.8 hPa 10.0 miles / 16.1 kilometers NNE 3.5 mph / 5.6 km/h - N/A   Clear
11:53 AM 37.9°F / 3.3°C 30.9°F / -0.6°C 76% 30.13 in / 1020.1 hPa 10.0 miles / 16.1 kilometers Calm Calm - N/A   Clear
12:53 PM 39.9°F / 4.4°C 28.9°F / -1.7°C 65% 30.12 in / 1019.7 hPa 10.0 miles / 16.1 kilometers Calm Calm - N/A   Clear
1:53 PM 39.0°F / 3.9°C 32.0°F / 0.0°C 76% 30.12 in / 1019.7 hPa 10.0 miles / 16.1 kilometers Calm Calm - N/A   Clear
2:53 PM 37.9°F / 3.3°C 30.0°F / -1.1°C 73% 30.12 in / 1019.7 hPa 10.0 miles / 16.1 kilometers Calm Calm - N/A   Overcast
3:53 PM 35.6°F / 2.0°C 30.2°F / -1.0°C 81% 30.10 in / 1019.2 hPa 10.0 miles / 16.1 kilometers NNW 4.6 mph / 7.4 km/h - N/A   Overcast
4:53 PM 36.0°F / 2.2°C 30.9°F / -0.6°C 82% 30.11 in / 1019.6 hPa 10.0 miles / 16.1 kilometers North 3.5 mph / 5.6 km/h - 0.00 in / 0.0 cm   Overcast
5:53 PM 34.0°F / 1.1°C 32.0°F / 0.0°C 92% 30.12 in / 1019.9 hPa 10.0 miles / 16.1 kilometers North 6.9 mph / 11.1 km/h - 0.08 in / 2.0 cm Rain Light Rain
6:53 PM 33.1°F / 0.6°C 33.1°F / 0.6°C 100% 30.12 in / 1019.9 hPa 10.0 miles / 16.1 kilometers North 4.6 mph / 7.4 km/h - 0.08 in / 2.0 cm Rain Light Rain
7:26 PM 33.8°F / 1.0°C 33.8°F / 1.0°C 100% 30.10 in / 1019.2 hPa 10.0 miles / 16.1 kilometers NE 3.5 mph / 5.6 km/h - 0.01 in / 0.3 cm Rain Light Rain
7:53 PM 34.0°F / 1.1°C 33.1°F / 0.6°C 96% 30.12 in / 1020.0 hPa 10.0 miles / 16.1 kilometers NNE 3.5 mph / 5.6 km/h - 0.02 in / 0.5 cm Rain Rain
8:53 PM 34.0°F / 1.1°C 34.0°F / 1.1°C 100% 30.13 in / 1020.1 hPa 10.0 miles / 16.1 kilometers North 3.5 mph / 5.6 km/h - 0.05 in / 1.3 cm   Overcast
9:53 PM 35.1°F / 1.7°C 35.1°F / 1.7°C 100% 30.13 in / 1020.3 hPa 10.0 miles / 16.1 kilometers North 3.5 mph / 5.6 km/h - 0.02 in / 0.5 cm Rain Light Rain
10:06 PM 35.6°F / 2.0°C 35.6°F / 2.0°C 100% 30.11 in / 1019.5 hPa 10.0 miles / 16.1 kilometers North 3.5 mph / 5.6 km/h - 0.01 in / 0.3 cm Rain Light Rain
10:27 PM 35.6°F / 2.0°C 35.6°F / 2.0°C 100% 30.12 in / 1019.9 hPa 10.0 miles / 16.1 kilometers North 3.5 mph / 5.6 km/h - 0.03 in / 0.8 cm Rain Light Rain
10:53 PM 36.0°F / 2.2°C 35.1°F / 1.7°C 97% 30.14 in / 1020.7 hPa 10.0 miles / 16.1 kilometers North 3.5 mph / 5.6 km/h - 0.04 in / 1.0 cm   Overcast
11:09 PM 35.6°F / 2.0°C 35.6°F / 2.0°C 100% 30.13 in / 1020.2 hPa 10.0 miles / 16.1 kilometers Calm Calm - 0.01 in / 0.3 cm   Overcast
11:36 PM 35.6°F / 2.0°C 35.6°F / 2.0°C 100% 30.14 in / 1020.5 hPa 8.0 miles / 12.9 kilometers Calm Calm - 0.02 in / 0.5 cm   Overcast
11:53 PM 35.1°F / 1.7°C 35.1°F / 1.7°C 100% 30.16 in / 1021.1 hPa 9.0 miles / 14.5 kilometers Calm Calm - 0.02 in / 0.5 cm Rain Light Rain
Moon Phase
Jan. 03 Jan. 04 Jan. 11 Jan. 18 Jan. 26
Sunrise:07:59 AM (PST) Moon Rise:11:46 PM (PST)1/3
Sunset:04:35 PM (PST) Moon Set:10:46 AM (PST)1/3

Copyright © 2014 The Weather Underground, Inc.